Showing default

METEOR 2-5, 11605

Orbit data source: Space-Track

METEOR 2-5, 11605 is a Commonwealth of Independent States-origin payload satellite in LEO that was launched on Wed, 31 Oct 1979 UTC via a VOSTOK 8A92M launch vehicle from the Plesetsk Missile And Space Complex (PKMTR). Payload-class satellites include a variety of spacecraft equipped with specific instruments for various scientific and technological missions. These include communications satellites like Starlink; space stations such as the ISS; scientific satellites like the Hubble; Earth observation satellites from companies like Planet Labs, Umbra, and HawkEye 360; GPS; miniature CubeSats for education and research; and military/defense satellites.

Loading next visibility...
Identifier
11605, 1979-095A
Orbit
LEO
Country
Flag of CISCIS
Related business
Manufacturer
VNIIEM
Mission
Civil Weather
Bus & Motor
METEOR-2, Unknown motor
Mass
~1,500 kg wet, ~1,500 kg dry
Launch date (UTC)
1979-10-31 (46 years ago)
Launch vehicle
VOSTOK 8A92M
Launch site
Plesetsk Missile And Space Complex (PKMTR)
Object type
Payload
Rocket body
Debris
Shape & HBR
Cyl + 2 Pan, 2.3 m
Radar Cross Section
5.718 m², Large (>1 m²)

Expand to show TLE details & history
Last TLE update: 16 hours ago

TLE from 16 hours ago
0 METEOR 2-5
1 11605U 79095A   25259.07388803  .00000049  00000-0  21653-4 0  9997
2 11605  81.2114 138.0808 0008707 305.6766  54.3592 14.07431063354745
Epoch: 2025-09-16T01:46Z
TLE epoch observation values (Epoch: 2025-09-16T01:46:23.925Z)
Latitude
-0.00005°
Longitude
116.21169°
Altitude
867.397 km
Speed
7.421 km/s
True Right ascension
09h 12m 19s
True Declination
0° 00' 00"
Sunlit
Object was in daylight at epoch
Visualization orbit readout
Latitude
Unknown
Longitude
Unknown
Altitude
Unknown
Speed
Unknown
Apparent Right ascension
Unknown
Apparent Declination
Unknown
Sunlit
N/A
Visualization observer readout
Local Sidereal Time
10:44:43
Azimuth
Unknown
Elevation
Unknown
Doppler factor
Unknown
Orbital elements
Apogee altitude
871.662 km
Perigee altitude
859.048 km
Semi-major axis
7,243.492 km
Eccentricity
0.00087
Inclination
81.2114°
RAAN
138.0808°
Arg. of periapsis
305.6766°
True anomaly
54.44034°
Mean anomaly
54.3592°
Eccentric anomaly
54.39976°
Mean motion
3.52064 °/min
Orbital period
102.25 mins
BSTAR
0.000021653
Loading maneuver chart data...
Computing Atmospheric mass density...

Documentation

Showing up to 5 results
|